ProjectID,Date,Electric Generation,Electric Utility Import,Facility Electric Load
,YYYY-MM-DD,kW,kW,kW
236,2015-01-01,0.0,,0.0
236,2015-01-02,0.0,,0.0
236,2015-01-03,0.0,,0.0
236,2015-01-04,0.0,,0.0
236,2015-01-05,0.0,,0.0
236,2015-01-06,0.0,,0.0
236,2015-01-07,0.0,,0.0
236,2015-01-08,0.0,,0.0
236,2015-01-09,0.0,,0.0
236,2015-01-10,0.0,,0.0
236,2015-01-11,0.0,,0.0
236,2015-01-12,0.0,,0.0
236,2015-01-13,0.0,,0.0
236,2015-01-14,0.0,,0.0
236,2015-01-15,0.0,,0.0
236,2015-01-16,0.0,,0.0
236,2015-01-17,10.633333333333333,,10.633333333333333
236,2015-01-18,0.26666666666666666,,0.26666666666666666
236,2015-01-19,5.360416666666667,,5.360416666666667
236,2015-01-20,7.3,,7.3
236,2015-01-21,6.595833333333334,,6.595833333333334
236,2015-01-22,7.335416666666667,,7.335416666666667
236,2015-01-23,10.835416666666665,,10.835416666666665
236,2015-01-24,0.0020833333333333333,,0.0020833333333333333
236,2015-01-25,3.7083333333333335,,3.7083333333333335
236,2015-01-26,1.2562499999999999,,1.2562499999999999
236,2015-01-27,0.09791666666666667,,0.09791666666666667
236,2015-01-28,1.7041666666666668,,1.7041666666666668
236,2015-01-29,2.05625,,2.05625
236,2015-01-30,1.3395833333333336,,1.3395833333333336
236,2015-01-31,5.7625,,5.7625
236,2015-02-01,4.158333333333333,,4.158333333333333
236,2015-02-02,0.0,,0.0
236,2015-02-03,0.010416666666666666,,0.010416666666666666
236,2015-02-04,0.0,,0.0
236,2015-02-05,0.16041666666666665,,0.16041666666666665
236,2015-02-06,0.15833333333333335,,0.15833333333333335
236,2015-02-07,0.0,,0.0
236,2015-02-08,0.0020833333333333333,,0.0020833333333333333
236,2015-02-09,0.0,,0.0
236,2015-02-10,0.22083333333333333,,0.22083333333333333
236,2015-02-11,0.8145833333333333,,0.8145833333333333
236,2015-02-12,0.8583333333333333,,0.8583333333333333
236,2015-02-13,3.7916666666666665,,3.7916666666666665
236,2015-02-14,0.6062500000000001,,0.6062500000000001
236,2015-02-15,3.7874999999999996,,3.7874999999999996
236,2015-02-16,4.429166666666666,,4.429166666666666
236,2015-02-17,0.18749999999999997,,0.18749999999999997
236,2015-02-18,2.247916666666667,,2.247916666666667
236,2015-02-19,3.125,,3.125
236,2015-02-20,6.21875,,6.21875
236,2015-02-21,1.7645833333333334,,1.7645833333333334
236,2015-02-22,0.18125,,0.18125
236,2015-02-23,1.5041666666666667,,1.5041666666666667
236,2015-02-24,3.235416666666666,,3.235416666666666
236,2015-02-25,4.635416666666667,,4.635416666666667
236,2015-02-26,3.3854166666666665,,3.3854166666666665
236,2015-02-27,7.083333333333333,,7.083333333333333
236,2015-02-28,8.145833333333334,,8.145833333333334
236,2015-03-01,1.5229166666666665,,1.5229166666666665
236,2015-03-02,0.008333333333333333,,0.008333333333333333
236,2015-03-03,0.008333333333333333,,0.008333333333333333
236,2015-03-04,0.7104166666666667,,0.7104166666666667
236,2015-03-05,0.0,,0.0
236,2015-03-06,0.004166666666666667,,0.004166666666666667
236,2015-03-07,0.010416666666666666,,0.010416666666666666
236,2015-03-08,5.445833333333334,,5.445833333333334
236,2015-03-09,15.266666666666667,,15.266666666666667
236,2015-03-10,7.379166666666666,,7.379166666666666
236,2015-03-11,15.127083333333333,,15.127083333333333
236,2015-03-12,20.010416666666668,,20.010416666666668
236,2015-03-13,18.766666666666666,,18.766666666666666
236,2015-03-14,2.8687500000000004,,2.8687500000000004
236,2015-03-15,4.939583333333334,,4.939583333333334
236,2015-03-16,12.11458333333333,,12.11458333333333
236,2015-03-17,10.818750000000001,,10.818750000000001
236,2015-03-18,15.68958333333333,,15.68958333333333
236,2015-03-19,20.735416666666666,,20.735416666666666
236,2015-03-20,3.704166666666666,,3.704166666666666
236,2015-03-21,4.241666666666666,,4.241666666666666
236,2015-03-22,21.32291666666666,,21.32291666666666
236,2015-03-23,21.962500000000002,,21.962500000000002
236,2015-03-24,19.89379166666667,,19.89379166666667
236,2015-03-25,12.127083333333333,,12.127083333333333
236,2015-03-26,4.358208333333333,,4.358208333333333
236,2015-03-27,5.4875,,5.4875
236,2015-03-28,7.112583333333333,,7.112583333333333
236,2015-03-29,22.0,,22.0
236,2015-03-30,10.120875,,10.120875
236,2015-03-31,8.781208333333334,,8.781208333333334
236,2015-04-01,16.141791666666666,,16.141791666666666
236,2015-04-02,12.925041666666667,,12.925041666666667
236,2015-04-03,2.493791666666667,,2.493791666666667
236,2015-04-04,14.054208333333333,,14.054208333333333
236,2015-04-05,8.552083333333334,,8.552083333333334
236,2015-04-06,11.920833333333334,,11.920833333333334
236,2015-04-07,5.854166666666667,,5.854166666666667
236,2015-04-08,4.014541666666667,,4.014541666666667
236,2015-04-09,5.447916666666668,,5.447916666666668
236,2015-04-10,5.485416666666667,,5.485416666666667
236,2015-04-11,22.908416666666668,,22.908416666666668
236,2015-04-12,22.95416666666667,,22.95416666666667
236,2015-04-13,20.372833333333332,,20.372833333333332
236,2015-04-14,6.187541666666667,,6.187541666666667
236,2015-04-15,21.8,,21.8
236,2015-04-16,21.60204166666667,,21.60204166666667
236,2015-04-17,12.402125,,12.402125
236,2015-04-18,20.13745833333333,,20.13745833333333
236,2015-04-19,22.285416666666666,,22.285416666666666
236,2015-04-20,2.0625416666666667,,2.0625416666666667
236,2015-04-21,20.262541666666664,,20.262541666666664
236,2015-04-22,16.62091666666667,,16.62091666666667
236,2015-04-23,13.410416666666668,,13.410416666666668
236,2015-04-24,19.854166666666668,,19.854166666666668
236,2015-04-25,23.145791666666668,,23.145791666666668
236,2015-04-26,14.306249999999999,,14.306249999999999
236,2015-04-27,15.256291666666668,,15.256291666666668
236,2015-04-28,24.270958333333336,,24.270958333333336
236,2015-04-29,22.076999999999998,,22.076999999999998
236,2015-04-30,24.087416666666666,,24.087416666666666
236,2015-05-01,20.947916666666668,,20.947916666666668
236,2015-05-02,23.743750000000002,,23.743750000000002
236,2015-05-03,21.866708333333335,,21.866708333333335
236,2015-05-04,22.145750000000003,,22.145750000000003
236,2015-05-05,14.866666666666669,,14.866666666666669
236,2015-05-06,9.066666666666665,,9.066666666666665
236,2015-05-07,23.460416666666664,,23.460416666666664
236,2015-05-08,23.07708333333333,,23.07708333333333
236,2015-05-09,10.283333333333333,,10.283333333333333
236,2015-05-10,14.968749999999998,,14.968749999999998
236,2015-05-11,16.864583333333332,,16.864583333333332
236,2015-05-12,18.30625,,18.30625
236,2015-05-13,17.604166666666668,,17.604166666666668
236,2015-05-14,24.391666666666666,,24.391666666666666
236,2015-05-15,19.027083333333334,,19.027083333333334
236,2015-05-16,11.354166666666666,,11.354166666666666
236,2015-05-17,13.085416666666667,,13.085416666666667
236,2015-05-18,6.072916666666667,,6.072916666666667
236,2015-05-19,15.208333333333334,,15.208333333333334
236,2015-05-20,19.529166666666665,,19.529166666666665
236,2015-05-21,11.9,,11.9
236,2015-05-22,17.489583333333336,,17.489583333333336
236,2015-05-23,26.0,,26.0
236,2015-05-24,18.614708333333333,,18.614708333333333
236,2015-05-25,19.02275,,19.02275
236,2015-05-26,22.57716666666666,,22.57716666666666
236,2015-05-27,20.497791666666664,,20.497791666666664
236,2015-05-28,18.78325,,18.78325
236,2015-05-29,23.852041666666665,,23.852041666666665
236,2015-05-30,22.645833333333332,,22.645833333333332
236,2015-05-31,11.395874999999998,,11.395874999999998
236,2015-06-01,4.273000000000001,,4.273000000000001
236,2015-06-02,4.385375,,4.385375
236,2015-06-03,23.46441666666667,,23.46441666666667
236,2015-06-04,14.831375,,14.831375
236,2015-06-05,12.797958333333332,,12.797958333333332
236,2015-06-06,17.683249999999997,,17.683249999999997
236,2015-06-07,22.852000000000004,,22.852000000000004
236,2015-06-08,18.798083333333334,,18.798083333333334
236,2015-06-09,15.429124999999999,,15.429124999999999
236,2015-06-10,23.86033333333333,,23.86033333333333
236,2015-06-11,19.008374999999997,,19.008374999999997
236,2015-06-12,21.195874999999997,,21.195874999999997
236,2015-06-13,19.673083333333334,,19.673083333333334
236,2015-06-14,18.420916666666667,,18.420916666666667
236,2015-06-15,9.295916666666669,,9.295916666666669
236,2015-06-16,11.812541666666666,,11.812541666666666
236,2015-06-17,17.295749999999998,,17.295749999999998
236,2015-06-18,7.995958333333333,,7.995958333333333
236,2015-06-19,19.475041666666666,,19.475041666666666
236,2015-06-20,4.914500000000001,,4.914500000000001
236,2015-06-21,12.943708333333335,,12.943708333333335
236,2015-06-22,23.68320833333333,,23.68320833333333
236,2015-06-23,16.16454166666667,,16.16454166666667
236,2015-06-24,25.49783333333333,,25.49783333333333
236,2015-06-25,18.939541666666663,,18.939541666666663
236,2015-06-26,21.879166666666666,,21.879166666666666
236,2015-06-27,6.383333333333334,,6.383333333333334
236,2015-06-28,7.8645,,7.8645
236,2015-06-29,17.172916666666666,,17.172916666666666
236,2015-06-30,21.150083333333335,,21.150083333333335
236,2015-07-01,20.32720833333333,,20.32720833333333
236,2015-07-02,14.55208333333333,,14.55208333333333
236,2015-07-03,22.299875000000004,,22.299875000000004
236,2015-07-04,10.312416666666666,,10.312416666666666
236,2015-07-05,19.772875000000003,,19.772875000000003
236,2015-07-06,16.702,,16.702
236,2015-07-07,18.575125000000003,,18.575125000000003
236,2015-07-08,12.106333333333334,,12.106333333333334
236,2015-07-09,11.806333333333335,,11.806333333333335
236,2015-07-10,24.428916666666666,,24.428916666666666
236,2015-07-11,20.88329166666667,,20.88329166666667
236,2015-07-12,17.820916666666665,,17.820916666666665
236,2015-07-13,21.008208333333332,,21.008208333333332
236,2015-07-14,10.625083333333334,,10.625083333333334
236,2015-07-15,7.375041666666668,,7.375041666666668
236,2015-07-16,24.939500000000006,,24.939500000000006
236,2015-07-17,22.839375,,22.839375
236,2015-07-18,12.508375,,12.508375
236,2015-07-19,18.075000000000003,,18.075000000000003
236,2015-07-20,21.335458333333335,,21.335458333333335
236,2015-07-21,12.208375000000002,,12.208375000000002
236,2015-07-22,22.646083333333333,,22.646083333333333
236,2015-07-23,23.06254166666667,,23.06254166666667
236,2015-07-24,23.95204166666667,,23.95204166666667
236,2015-07-25,21.052125,,21.052125
236,2015-07-26,12.643666666666666,,12.643666666666666
236,2015-07-27,17.812458333333336,,17.812458333333336
236,2015-07-28,20.743666666666666,,20.743666666666666
236,2015-07-29,20.381291666666666,,20.381291666666666
236,2015-07-30,6.539625,,6.539625
236,2015-07-31,22.887583333333335,,22.887583333333335
236,2015-08-01,19.787375,,19.787375
236,2015-08-02,18.225083333333334,,18.225083333333334
236,2015-08-03,21.168833333333335,,21.168833333333335
236,2015-08-04,23.200125,,23.200125
236,2015-08-05,18.68129166666667,,18.68129166666667
236,2015-08-06,20.089583333333334,,20.089583333333334
236,2015-08-07,23.64170833333333,,23.64170833333333
236,2015-08-08,17.379083333333334,,17.379083333333334
236,2015-08-09,16.758208333333332,,16.758208333333332
236,2015-08-10,19.512375000000002,,19.512375000000002
236,2015-08-11,6.2540000000000004,,6.2540000000000004
236,2015-08-12,19.985291666666665,,19.985291666666665
236,2015-08-13,20.41433333333333,,20.41433333333333
236,2015-08-14,22.06483333333333,,22.06483333333333
236,2015-08-15,20.881124999999997,,20.881124999999997
236,2015-08-16,13.156333333333334,,13.156333333333334
236,2015-08-17,15.099958333333332,,15.099958333333332
236,2015-08-18,19.795916666666667,,19.795916666666667
236,2015-08-19,17.24775,,17.24775
236,2015-08-20,17.06675,,17.06675
236,2015-08-21,17.681291666666667,,17.681291666666667
236,2015-08-22,20.141666666666666,,20.141666666666666
236,2015-08-23,14.889708333333333,,14.889708333333333
236,2015-08-24,17.293666666666667,,17.293666666666667
236,2015-08-25,16.077083333333334,,16.077083333333334
236,2015-08-26,20.116583333333335,,20.116583333333335
236,2015-08-27,17.812541666666664,,17.812541666666664
236,2015-08-28,21.379166666666674,,21.379166666666674
236,2015-08-29,19.998,,19.998
236,2015-08-30,16.702166666666667,,16.702166666666667
236,2015-08-31,13.487625,,13.487625
236,2015-09-01,18.41241666666667,,18.41241666666667
236,2015-09-02,17.41904166666667,,17.41904166666667
236,2015-09-03,17.635416666666668,,17.635416666666668
236,2015-09-04,13.389666666666665,,13.389666666666665
236,2015-09-05,20.749958333333336,,20.749958333333336
236,2015-09-06,18.06016666666667,,18.06016666666667
236,2015-09-07,18.654041666666664,,18.654041666666664
236,2015-09-08,17.866541666666663,,17.866541666666663
236,2015-09-09,12.66475,,12.66475
236,2015-09-10,3.7291666666666665,,3.7291666666666665
236,2015-09-11,16.014666666666663,,16.014666666666663
236,2015-09-12,8.099916666666667,,8.099916666666667
236,2015-09-13,14.333374999999998,,14.333374999999998
236,2015-09-14,20.22266666666667,,20.22266666666667
236,2015-09-15,19.33129166666667,,19.33129166666667
236,2015-09-16,18.7165,,18.7165
236,2015-09-17,18.214541666666666,,18.214541666666666
236,2015-09-18,18.2165,,18.2165
236,2015-09-19,14.018958333333332,,14.018958333333332
236,2015-09-20,13.383125,,13.383125
236,2015-09-21,16.483083333333333,,16.483083333333333
236,2015-09-22,8.781208333333334,,8.781208333333334
236,2015-09-23,17.920875,,17.920875
236,2015-09-24,18.181333333333335,,18.181333333333335
236,2015-09-25,16.881166666666665,,16.881166666666665
236,2015-09-26,15.150083333333333,,15.150083333333333
236,2015-09-27,11.164333333333333,,11.164333333333333
236,2015-09-28,10.264375,,10.264375
236,2015-09-29,9.604166666666666,,9.604166666666666
236,2015-09-30,4.958333333333333,,4.958333333333333
236,2015-10-01,4.654375000000001,,4.654375000000001
236,2015-10-02,2.964541666666667,,2.964541666666667
236,2015-10-03,1.7438749999999998,,1.7438749999999998
236,2015-10-04,10.889666666666669,,10.889666666666669
236,2015-10-05,15.695958333333332,,15.695958333333332
236,2015-10-06,16.637333333333334,,16.637333333333334
236,2015-10-07,14.139666666666665,,14.139666666666665
236,2015-10-08,12.387749999999999,,12.387749999999999
236,2015-10-09,10.508041666666665,,10.508041666666665
236,2015-10-10,16.40820833333333,,16.40820833333333
236,2015-10-11,14.416625000000002,,14.416625000000002
236,2015-10-12,15.737583333333335,,15.737583333333335
236,2015-10-13,10.085291666666667,,10.085291666666667
236,2015-10-14,10.695625,,10.695625
236,2015-10-15,15.710666666666663,,15.710666666666663
236,2015-10-16,11.591791666666666,,11.591791666666666
236,2015-10-17,12.714500000000001,,12.714500000000001
236,2015-10-18,10.37725,,10.37725
236,2015-10-19,15.349958333333333,,15.349958333333333
236,2015-10-20,13.908541666666666,,13.908541666666666
236,2015-10-21,13.008416666666664,,13.008416666666664
236,2015-10-22,10.452125,,10.452125
236,2015-10-23,14.406291666666668,,14.406291666666668
236,2015-10-24,6.177125,,6.177125
236,2015-10-25,5.652,,5.652
236,2015-10-26,14.254249999999999,,14.254249999999999
236,2015-10-27,7.933291666666666,,7.933291666666666
236,2015-10-28,0.9479166666666666,,0.9479166666666666
236,2015-10-29,10.779375,,10.779375
236,2015-10-30,13.643500000000001,,13.643500000000001
236,2015-10-31,10.893833333333333,,10.893833333333333
236,2015-11-01,4.599958333333333,,4.599958333333333
236,2015-11-02,6.949833333333333,,6.949833333333333
236,2015-11-03,11.862666666666668,,11.862666666666668
236,2015-11-04,11.716833333333334,,11.716833333333334
236,2015-11-05,4.043958333333333,,4.043958333333333
236,2015-11-06,6.222958333333334,,6.222958333333334
236,2015-11-07,3.6686666666666667,,3.6686666666666667
236,2015-11-08,11.912833333333332,,11.912833333333332
236,2015-11-09,10.304041666666667,,10.304041666666667
236,2015-11-10,1.1897499999999999,,1.1897499999999999
236,2015-11-11,4.533541666666667,,4.533541666666667
236,2015-11-12,1.2125833333333333,,1.2125833333333333
236,2015-11-13,11.0375,,11.0375
236,2015-11-14,11.777000000000001,,11.777000000000001
236,2015-11-15,10.179041666666667,,10.179041666666667
236,2015-11-16,10.239583333333334,,10.239583333333334
236,2015-11-17,11.139625,,11.139625
236,2015-11-18,5.797833333333333,,5.797833333333333
236,2015-11-19,2.373125,,2.373125
236,2015-11-20,10.599916666666667,,10.599916666666667
236,2015-11-21,10.677083333333334,,10.677083333333334
236,2015-11-22,3.0664166666666666,,3.0664166666666666
236,2015-11-23,9.97075,,9.97075
236,2015-11-24,8.112291666666666,,8.112291666666666
236,2015-11-25,9.604166666666666,,9.604166666666666
236,2015-11-26,7.981125,,7.981125
236,2015-11-27,8.320666666666666,,8.320666666666666
236,2015-11-28,2.7434583333333333,,2.7434583333333333
236,2015-11-29,8.335583333333334,,8.335583333333334
236,2015-11-30,7.531291666666667,,7.531291666666667
236,2015-12-01,1.0166250000000001,,1.0166250000000001
236,2015-12-02,1.3353333333333335,,1.3353333333333335
236,2015-12-03,5.354208333333333,,5.354208333333333
236,2015-12-04,9.137708333333334,,9.137708333333334
236,2015-12-05,8.679333333333334,,8.679333333333334
236,2015-12-06,8.670541666666667,,8.670541666666667
236,2015-12-07,7.9602916666666665,,7.9602916666666665
236,2015-12-08,5.654333333333334,,5.654333333333334
236,2015-12-09,2.360375,,2.360375
236,2015-12-10,7.6273333333333335,,7.6273333333333335
236,2015-12-11,5.791625,,5.791625
236,2015-12-12,4.8352916666666665,,4.8352916666666665
236,2015-12-13,6.3830833333333326,,6.3830833333333326
236,2015-12-14,1.968708333333333,,1.968708333333333
236,2015-12-15,8.456,,8.456
236,2015-12-16,8.360375,,8.360375
236,2015-12-17,0.35808333333333336,,0.35808333333333336
236,2015-12-18,2.0606250000000004,,2.0606250000000004
236,2015-12-19,7.912458333333333,,7.912458333333333
236,2015-12-20,8.75,,8.75
236,2015-12-21,3.2418333333333336,,3.2418333333333336
236,2015-12-22,0.726875,,0.726875
236,2015-12-23,0.67475,,0.67475
236,2015-12-24,2.1667083333333337,,2.1667083333333337
236,2015-12-25,3.608083333333333,,3.608083333333333
236,2015-12-26,2.2499999999999996,,2.2499999999999996
236,2015-12-27,1.7561666666666669,,1.7561666666666669
236,2015-12-28,6.631166666666666,,6.631166666666666
236,2015-12-29,1.08725,,1.08725
236,2015-12-30,0.9189583333333334,,0.9189583333333334
236,2015-12-31,3.3186666666666667,,3.3186666666666667
236,2016-01-01,2.822875,,2.822875
236,2016-01-02,6.49775,,6.49775
236,2016-01-03,8.947916666666666,,8.947916666666666
236,2016-01-04,9.220666666666666,,9.220666666666666
236,2016-01-05,10.302125,,10.302125
236,2016-01-06,9.670875,,9.670875
236,2016-01-07,8.058333333333334,,8.058333333333334
236,2016-01-08,6.993875,,6.993875
236,2016-01-09,3.077166666666667,,3.077166666666667
236,2016-01-10,2.46875,,2.46875
236,2016-01-11,10.516916666666667,,10.516916666666667
236,2016-01-12,4.791666666666667,,4.791666666666667
236,2016-01-13,10.795958333333333,,10.795958333333333
236,2016-01-14,5.931291666666667,,5.931291666666667
236,2016-01-15,6.358041666666666,,6.358041666666666
236,2016-01-16,6.337208333333333,,6.337208333333333
236,2016-01-17,1.8270833333333332,,1.8270833333333332
236,2016-01-18,7.168625,,7.168625
236,2016-01-19,11.391625000000003,,11.391625000000003
236,2016-01-20,9.820666666666666,,9.820666666666666
236,2016-01-21,10.770833333333334,,10.770833333333334
236,2016-01-22,6.298208333333334,,6.298208333333334
236,2016-01-23,0.0,,0.0
236,2016-01-24,0.0,,0.0
236,2016-01-25,0.0,,0.0
236,2016-01-26,0.0,,0.0
236,2016-01-27,1.5458749999999999,,1.5458749999999999
236,2016-01-28,4.46875,,4.46875
236,2016-01-29,2.702125,,2.702125
236,2016-01-30,8.350291666666667,,8.350291666666667
236,2016-01-31,9.052125,,9.052125
236,2016-02-01,5.43975,,5.43975
236,2016-02-02,11.937458333333334,,11.937458333333334
236,2016-02-03,0.6334583333333333,,0.6334583333333333
236,2016-02-04,4.562458333333333,,4.562458333333333
236,2016-02-05,0.17741666666666664,,0.17741666666666664
236,2016-02-06,2.6250416666666667,,2.6250416666666667
236,2016-02-07,10.621166666666667,,10.621166666666667
236,2016-02-08,1.4290833333333335,,1.4290833333333335
236,2016-02-09,8.077125,,8.077125
236,2016-02-10,4.929375,,4.929375
236,2016-02-11,9.768875,,9.768875
236,2016-02-12,11.002,,11.002
236,2016-02-13,11.194,,11.194
236,2016-02-14,12.677124999999998,,12.677124999999998
236,2016-02-15,1.8958750000000002,,1.8958750000000002
236,2016-02-16,1.7021666666666666,,1.7021666666666666
236,2016-02-17,3.9914166666666664,,3.9914166666666664
236,2016-02-18,16.137375,,16.137375
236,2016-02-19,9.710291666666667,,9.710291666666667
236,2016-02-20,9.9375,,9.9375
236,2016-02-21,6.406208333333333,,6.406208333333333
236,2016-02-22,15.704083333333335,,15.704083333333335
236,2016-02-23,2.1396666666666664,,2.1396666666666664
236,2016-02-24,1.1185416666666668,,1.1185416666666668
236,2016-02-25,4.3769583333333335,,4.3769583333333335
236,2016-02-26,16.649708333333333,,16.649708333333333
236,2016-02-27,14.60416666666667,,14.60416666666667
236,2016-02-28,16.604166666666668,,16.604166666666668
236,2016-02-29,8.356166666666667,,8.356166666666667
236,2016-03-01,16.46875,,16.46875
236,2016-03-02,16.2855,,16.2855
236,2016-03-03,15.427041666666668,,15.427041666666668
236,2016-03-04,2.8997499999999996,,2.8997499999999996
236,2016-03-05,14.627208333333334,,14.627208333333334
236,2016-03-06,14.72725,,14.72725
236,2016-03-07,17.243875,,17.243875
236,2016-03-08,14.59791666666667,,14.59791666666667
236,2016-03-09,16.750041666666664,,16.750041666666664
236,2016-03-10,9.531208333333334,,9.531208333333334
236,2016-03-11,15.326749999999999,,15.326749999999999
236,2016-03-12,15.945916666666669,,15.945916666666669
236,2016-03-13,8.09375,,8.09375
236,2016-03-14,3.439541666666667,,3.439541666666667
236,2016-03-15,6.839791666666667,,6.839791666666667
236,2016-03-16,15.833291666666666,,15.833291666666666
236,2016-03-17,13.987625,,13.987625
236,2016-03-18,13.558250000000001,,13.558250000000001
236,2016-03-19,13.206291666666667,,13.206291666666667
236,2016-03-20,11.679083333333333,,11.679083333333333
236,2016-03-21,16.433333333333334,,16.433333333333334
236,2016-03-22,20.306291666666663,,20.306291666666663
236,2016-03-23,14.929083333333333,,14.929083333333333
236,2016-03-24,16.518541666666668,,16.518541666666668
236,2016-03-25,9.541625,,9.541625
236,2016-03-26,19.108333333333334,,19.108333333333334
236,2016-03-27,15.072916666666666,,15.072916666666666
236,2016-03-28,7.681291666666667,,7.681291666666667
236,2016-03-29,22.491833333333332,,22.491833333333332
236,2016-03-30,21.816708333333334,,21.816708333333334
236,2016-03-31,15.814458333333333,,15.814458333333333
236,2016-04-01,11.804333333333334,,11.804333333333334
236,2016-04-02,7.819,,7.819
236,2016-04-03,16.468749999999996,,16.468749999999996
236,2016-04-04,2.8333333333333335,,2.8333333333333335
236,2016-04-05,24.03316666666667,,24.03316666666667
236,2016-04-06,18.71441666666667,,18.71441666666667
236,2016-04-07,7.866791666666665,,7.866791666666665
236,2016-04-08,10.971041666666666,,10.971041666666666
236,2016-04-09,5.952166666666667,,5.952166666666667
236,2016-04-10,17.539333333333328,,17.539333333333328
236,2016-04-11,14.900041666666667,,14.900041666666667
236,2016-04-12,11.079458333333335,,11.079458333333335
236,2016-04-13,23.70404166666667,,23.70404166666667
236,2016-04-14,23.262666666666664,,23.262666666666664
236,2016-04-15,23.460624999999997,,23.460624999999997
236,2016-04-16,16.5625,,16.5625
236,2016-04-17,17.331416666666666,,17.331416666666666
236,2016-04-18,22.40425,,22.40425
236,2016-04-19,22.826875,,22.826875
236,2016-04-20,24.112666666666666,,24.112666666666666
236,2016-04-21,22.479166666666668,,22.479166666666668
236,2016-04-22,17.89554166666667,,17.89554166666667
236,2016-04-23,11.989583333333336,,11.989583333333336
236,2016-04-24,17.716791666666666,,17.716791666666666
236,2016-04-25,18.760416666666668,,18.760416666666668
236,2016-04-26,10.454416666666667,,10.454416666666667
236,2016-04-27,19.554083333333335,,19.554083333333335
236,2016-04-28,15.696,,15.696